| time (UTC) | temp C | wind direction | speed KPH | gust KPH | rain 1hr cm | rain 24hr cm | rain mn cm | humidity % | barometer mb |
| 20260906124532 | -17 | 162 | 0.0 | 0.0 | 0.00 | 0.00 | 0.00 | 1013.6 | |
| 20260906124027 | -17 | 137 | 0.0 | 1.6 | 0.00 | 0.00 | 0.00 | 1013.7 | |
| 20260906123526 | -17 | 137 | 0.0 | 1.6 | 0.00 | 0.00 | 0.00 | 1013.8 | |
| 20260906123021 | -17 | 61 | 0.0 | 1.6 | 0.00 | 0.00 | 0.00 | 1013.5 | |
| 20260906122521 | -17 | 137 | 0.0 | 1.6 | 0.00 | 0.00 | 0.00 | 1013.6 | |
| 20260906122017 | -17 | 164 | 0.0 | 3.2 | 0.00 | 0.00 | 0.00 | 1013.6 | |
| 20260906121513 | -17 | 174 | 1.6 | 3.2 | 0.00 | 0.00 | 0.00 | 1013.5 | |
| 20260906121009 | -17 | 354 | 0.0 | 3.2 | 0.00 | 0.00 | 0.00 | 1013.6 | |
| 20260906120504 | -17 | 112 | 1.6 | 3.2 | 0.00 | 0.00 | 0.00 | 1013.3 | |
| 20260906120002 | -17 | 9 | 0.0 | 1.6 | 0.00 | 0.00 | 0.00 | 1013.4 | |
| 20260906115456 | -17 | 9 | 0.0 | 1.6 | 0.00 | 0.00 | 0.00 | 1013.1 | |
| 20260906114956 | -17 | 214 | 0.0 | 1.6 | 0.00 | 0.00 | 0.00 | 1013.2 | |
| 20260906114451 | -17 | 189 | 0.0 | 1.6 | 0.00 | 0.00 | 0.00 | 1013.1 | |
| 20260906113947 | -17 | 116 | 0.0 | 3.2 | 0.00 | 0.00 | 0.00 | 1013.3 | |
| 20260906113445 | -17 | 150 | 0.0 | 3.2 | 0.00 | 0.00 | 0.00 | 1013.1 | |
| 20260906112941 | -17 | 67 | 1.6 | 3.2 | 0.00 | 0.00 | 0.00 | 1013.1 | |
| 20260906112436 | -17 | 235 | 0.0 | 1.6 | 0.00 | 0.00 | 0.00 | 1012.7 | |
| 20260906111931 | -17 | 342 | 0.0 | 1.6 | 0.00 | 0.00 | 0.00 | 1012.8 | |
| 20260906111431 | -17 | 160 | 0.0 | 3.2 | 0.00 | 0.00 | 0.00 | 1012.7 | |
| 20260906110926 | -17 | 247 | 0.0 | 0.0 | 0.00 | 0.00 | 0.00 | 1012.6 | |
| 20260906110421 | -17 | 230 | 0.0 | 3.2 | 0.00 | 0.00 | 0.00 | 1012.6 | |
| 20260906105921 | -17 | 216 | 0.0 | 1.6 | 0.00 | 0.00 | 0.00 | 1012.8 | |
| 20260906105417 | -17 | 249 | 0.0 | 3.2 | 0.00 | 0.00 | 0.00 | 1012.7 | |
| 20260906104912 | -17 | 3 | 0.0 | 3.2 | 0.00 | 0.00 | 0.00 | 1012.6 | |
| 20260906104410 | -17 | 194 | 0.0 | 1.6 | 0.00 | 0.00 | 0.00 | 1012.5 | |
| 20260906103909 | -17 | 352 | 0.0 | 1.6 | 0.00 | 0.00 | 0.00 | 1012.7 | |
| 20260906103407 | -17 | 36 | 0.0 | 3.2 | 0.00 | 0.00 | 0.00 | 1012.7 | |
| 20260906102904 | -17 | 39 | 0.0 | 1.6 | 0.00 | 0.00 | 0.00 | 1012.8 | |
| 20260906102402 | -17 | 155 | 0.0 | 3.2 | 0.00 | 0.00 | 0.00 | 1012.6 | |
| 20260906101858 | -17 | 177 | 0.0 | 1.6 | 0.00 | 0.00 | 0.00 | 1012.4 | |
| 20260906101353 | -17 | 138 | 0.0 | 3.2 | 0.00 | 0.00 | 0.00 | 1012.6 | |
| 20260906100848 | -17 | 157 | 0.0 | 1.6 | 0.00 | 0.00 | 0.00 | 1012.6 | |
| 20260906100347 | -17 | 49 | 0.0 | 1.6 | 0.00 | 0.00 | 0.00 | 1012.7 | |
| 20260906095843 | -17 | 150 | 0.0 | 3.2 | 0.00 | 0.00 | 0.00 | 1012.8 | |
| 20260906095338 | -17 | 184 | 0.0 | 1.6 | 0.00 | 0.00 | 0.00 | 1012.7 | |
| 20260906094837 | -17 | 100 | 0.0 | 3.2 | 0.00 | 0.00 | 0.00 | 1012.6 | |
| 20260906094332 | -17 | 4 | 0.0 | 1.6 | 0.00 | 0.00 | 0.00 | 1012.6 | |
| 20260906093829 | -17 | 194 | 0.0 | 3.2 | 0.00 | 0.00 | 0.00 | 1012.7 | |
| 20260906093324 | -17 | 144 | 0.0 | 3.2 | 0.00 | 0.00 | 0.00 | 1012.5 | |
| 20260906092819 | -17 | 257 | 0.0 | 3.2 | 0.00 | 0.00 | 0.00 | 1012.5 | |
| 20260906092313 | -17 | 246 | 1.6 | 3.2 | 0.00 | 0.00 | 0.00 | 1012.7 | |
| 20260906091804 | -17 | 257 | 0.0 | 1.6 | 0.00 | 0.00 | 0.00 | 1012.9 | |
| 20260906091300 | -17 | 1 | 0.0 | 1.6 | 0.00 | 0.00 | 0.00 | 1012.9 | |
| 20260906090756 | -17 | 247 | 0.0 | 1.6 | 0.00 | 0.00 | 0.00 | 1012.8 | |
| 20260906090254 | -17 | 79 | 1.6 | 3.2 | 0.00 | 0.00 | 0.00 | 1012.8 | |
| 20260906085754 | -17 | 93 | 1.6 | 4.8 | 0.00 | 0.00 | 0.00 | 1012.7 | |
| 20260906085247 | -17 | 95 | 3.2 | 4.8 | 0.00 | 0.00 | 0.00 | 1012.9 | |
| 20260906084742 | -17 | 109 | 3.2 | 4.8 | 0.00 | 0.00 | 0.00 | 1013.0 | |
| 20260906084236 | -17 | 90 | 3.2 | 4.8 | 0.00 | 0.00 | 0.00 | 1013.1 | |
| 20260906083732 | -17 | 125 | 3.2 | 4.8 | 0.00 | 0.00 | 0.00 | 1013.2 | |
| 20260906083227 | -17 | 183 | 1.6 | 3.2 | 0.00 | 0.00 | 0.00 | 1013.4 | |
| 20260906082722 | -17 | 55 | 0.0 | 3.2 | 0.00 | 0.00 | 0.00 | 1013.2 | |
| 20260906082217 | -17 | 105 | 3.2 | 4.8 | 0.00 | 0.00 | 0.00 | 1013.1 | |
| 20260906081713 | -17 | 118 | 3.2 | 4.8 | 0.00 | 0.00 | 0.00 | 1013.1 | |
| 20260906081208 | -17 | 97 | 3.2 | 4.8 | 0.00 | 0.00 | 0.00 | 1013.1 | |
| 20260906080704 | -17 | 118 | 1.6 | 3.2 | 0.00 | 0.00 | 0.00 | 1012.8 | |
| 20260906080154 | -17 | 51 | 1.6 | 4.8 | 0.00 | 0.00 | 0.00 | 1012.9 | |
| 20260906075654 | -17 | 78 | 3.2 | 3.2 | 0.00 | 0.00 | 0.00 | 1012.9 | |
| 20260906075143 | -17 | 126 | 1.6 | 3.2 | 0.00 | 0.00 | 0.00 | 1012.8 | |
| 20260906074638 | -17 | 130 | 3.2 | 3.2 | 0.00 | 0.00 | 0.00 | 1012.6 | |
| 20260906074137 | -17 | 213 | 0.0 | 1.6 | 0.00 | 0.00 | 0.00 | 1012.6 | |
| 20260906073632 | -17 | 115 | 0.0 | 3.2 | 0.00 | 0.00 | 0.00 | 1012.5 | |
| 20260906073127 | -17 | 168 | 1.6 | 4.8 | 0.00 | 0.00 | 0.00 | 1012.4 | |
| 20260906072617 | -17 | 49 | 0.0 | 6.4 | 0.00 | 0.00 | 0.00 | 1012.3 | |
| 20260906072112 | -17 | 161 | 1.6 | 8.0 | 0.00 | 0.00 | 0.00 | 1012.7 | |
| 20260906071608 | -17 | 91 | 3.2 | 3.2 | 0.00 | 0.00 | 0.00 | 1012.8 | |
| 20260906071103 | -17 | 75 | 1.6 | 3.2 | 0.00 | 0.00 | 0.00 | 1012.3 | |
| 20260906070600 | -17 | 189 | 0.0 | 0.0 | 0.00 | 0.00 | 0.00 | 1012.4 | |
| 20260906070054 | -17 | 349 | 0.0 | 0.0 | 0.00 | 0.00 | 0.00 | 1012.1 | |
| 20260906065554 | -17 | 346 | 1.6 | 3.2 | 0.00 | 0.00 | 0.00 | 1012.5 | |
| 20260906065050 | -17 | 189 | 0.0 | 0.0 | 0.00 | 0.00 | 0.00 | 1012.6 | |
| 20260906064545 | -17 | 145 | 3.2 | 3.2 | 0.00 | 0.00 | 0.00 | 1012.8 | |
| 20260906064035 | -17 | 114 | 1.6 | 3.2 | 0.00 | 0.00 | 0.00 | 1012.9 | |
| 20260906063530 | -17 | 55 | 0.0 | 1.6 | 0.00 | 0.00 | 0.00 | 1013.2 | |
| 20260906063026 | -17 | 121 | 0.0 | 3.2 | 0.00 | 0.00 | 0.00 | 1013.0 | |
| 20260906062521 | -17 | 241 | 3.2 | 3.2 | 0.00 | 0.00 | 0.00 | 1012.9 | |
| 20260906062015 | -17 | 151 | 1.6 | 3.2 | 0.00 | 0.00 | 0.00 | 1013.0 | |
| 20260906061511 | -17 | 254 | 0.0 | 0.0 | 0.00 | 0.00 | 0.00 | 1012.9 | |
| 20260906061005 | -17 | 96 | 1.6 | 3.2 | 0.00 | 0.00 | 0.00 | 1013.1 | |
| 20260906060502 | -17 | 107 | 3.2 | 3.2 | 0.00 | 0.00 | 0.00 | 1012.9 | |
| 20260906055958 | -17 | 348 | 0.0 | 3.2 | 0.00 | 0.00 | 0.00 | 1012.9 | |
| 20260906055454 | -17 | 115 | 0.0 | 1.6 | 0.00 | 0.00 | 0.00 | 1013.1 | |
| 20260906054949 | -17 | 235 | 0.0 | 3.2 | 0.00 | 0.00 | 0.00 | 1013.0 | |
| 20260906054449 | -17 | 250 | 1.6 | 4.8 | 0.00 | 0.00 | 0.00 | 1013.2 | |
| 20260906053944 | -17 | 225 | 0.0 | 1.6 | 0.00 | 0.00 | 0.00 | 1013.0 | |
| 20260906053441 | -17 | 82 | 1.6 | 3.2 | 0.00 | 0.00 | 0.00 | 1013.0 | |
| 20260906052936 | -17 | 229 | 0.0 | 1.6 | 0.00 | 0.00 | 0.00 | 1012.9 | |
| 20260906052432 | -17 | 137 | 0.0 | 3.2 | 0.00 | 0.00 | 0.00 | 1012.7 | |
| 20260906051929 | -17 | 264 | 0.0 | 1.6 | 0.00 | 0.00 | 0.00 | 1012.6 | |
| 20260906051424 | -17 | 235 | 0.0 | 3.2 | 0.00 | 0.00 | 0.00 | 1012.8 | |
| 20260906050920 | -17 | 237 | 3.2 | 3.2 | 0.00 | 0.00 | 0.00 | 1012.8 | |
| 20260906050419 | -17 | 35 | 1.6 | 3.2 | 0.00 | 0.00 | 0.00 | 1013.0 | |
| 20260906045919 | -17 | 264 | 0.0 | 3.2 | 0.00 | 0.00 | 0.00 | 1013.0 | |
| 20260906045417 | -17 | 138 | 0.0 | 3.2 | 0.00 | 0.00 | 0.00 | 1013.0 | |
| 20260906044914 | -17 | 247 | 0.0 | 0.0 | 0.00 | 0.00 | 0.00 | 1013.4 | |
| 20260906044413 | -17 | 340 | 0.0 | 1.6 | 0.00 | 0.00 | 0.00 | 1013.4 | |
| 20260906043909 | -17 | 115 | 0.0 | 3.2 | 0.00 | 0.00 | 0.00 | 1013.4 | |
| 20260906043405 | -17 | 0 | 3.2 | 3.2 | 0.00 | 0.00 | 0.00 | 1013.2 | |
| 20260906042900 | -17 | 9 | 0.0 | 1.6 | 0.00 | 0.00 | 0.00 | 1013.3 | |
| 20260906042359 | -17 | 234 | 0.0 | 3.2 | 0.00 | 0.00 | 0.00 | 1013.4 | |
| 20260906041855 | -17 | 150 | 0.0 | 0.0 | 0.00 | 0.00 | 0.00 | 1013.4 | |
| 20260906041350 | -17 | 158 | 0.0 | 3.2 | 0.00 | 0.00 | 0.00 | 1013.4 | |
| 20260906040845 | -17 | 55 | 0.0 | 1.6 | 0.00 | 0.00 | 0.00 | 1013.5 | |
| 20260906040341 | -17 | 144 | 0.0 | 1.6 | 0.00 | 0.00 | 0.00 | 1013.2 | |
| 20260906035836 | -17 | 356 | 0.0 | 0.0 | 0.00 | 0.00 | 0.00 | 1013.2 | |
| 20260906035331 | -17 | 356 | 0.0 | 0.0 | 0.00 | 0.00 | 0.00 | 1013.3 | |
| 20260906034826 | -17 | 356 | 0.0 | 1.6 | 0.00 | 0.00 | 0.00 | 1013.3 | |
| 20260906034321 | -17 | 229 | 0.0 | 1.6 | 0.00 | 0.00 | 0.00 | 1013.3 | |
| 20260906033817 | -17 | 346 | 0.0 | 1.6 | 0.00 | 0.00 | 0.00 | 1013.4 | |
| 20260906033316 | -17 | 83 | 0.0 | 0.0 | 0.00 | 0.00 | 0.00 | 1013.4 | |
| 20260906032813 | -17 | 83 | 0.0 | 0.0 | 0.00 | 0.00 | 0.00 | 1013.5 | |
| 20260906032308 | -17 | 100 | 0.0 | 1.6 | 0.00 | 0.00 | 0.00 | 1013.4 | |
| 20260906031803 | -17 | 349 | 0.0 | 3.2 | 0.00 | 0.00 | 0.00 | 1013.4 | |
| 20260906031259 | -17 | 137 | 0.0 | 1.6 | 0.00 | 0.00 | 0.00 | 1013.7 | |
| 20260906030758 | -17 | 141 | 1.6 | 4.8 | 0.00 | 0.00 | 0.00 | 1013.7 | |
| 20260906030254 | -17 | 92 | 0.0 | 1.6 | 0.00 | 0.00 | 0.00 | 1013.4 | |
| 20260906025753 | -17 | 111 | 1.6 | 3.2 | 0.00 | 0.00 | 0.00 | 1013.4 | |
| 20260906025248 | -17 | 241 | 0.0 | 0.0 | 0.00 | 0.00 | 0.00 | 1013.3 | |
| 20260906024746 | -17 | 241 | 0.0 | 0.0 | 0.00 | 0.00 | 0.00 | 1013.1 | |
| 20260906024240 | -17 | 241 | 0.0 | 0.0 | 0.00 | 0.00 | 0.00 | 1012.8 | |
| 20260906023736 | -17 | 264 | 0.0 | 0.0 | 0.00 | 0.00 | 0.00 | 1012.9 | |
| 20260906023231 | -17 | 264 | 0.0 | 0.0 | 0.00 | 0.00 | 0.00 | 1013.0 | |
| 20260906022726 | -17 | 264 | 0.0 | 1.6 | 0.00 | 0.00 | 0.00 | 1013.2 | |
| 20260906022221 | -17 | 265 | 0.0 | 1.6 | 0.00 | 0.00 | 0.00 | 1013.0 | |
| 20260906021718 | -17 | 357 | 0.0 | 0.0 | 0.00 | 0.00 | 0.00 | 1012.8 | |
| 20260906021216 | -17 | 83 | 0.0 | 0.0 | 0.00 | 0.00 | 0.00 | 1012.9 | |
| 20260906020711 | -17 | 100 | 0.0 | 3.2 | 0.00 | 0.00 | 0.00 | 1013.0 | |
| 20260906020205 | -17 | 266 | 0.0 | 1.6 | 0.00 | 0.00 | 0.00 | 1013.0 | |
| 20260906015700 | -17 | 330 | 0.0 | 0.0 | 0.00 | 0.00 | 0.00 | 1012.8 | |
| 20260906015158 | -17 | 330 | 0.0 | 0.0 | 0.00 | 0.00 | 0.00 | 1012.7 | |
| 20260906014653 | -17 | 343 | 0.0 | 1.6 | 0.00 | 0.00 | 0.00 | 1012.6 | |
| 20260906014149 | -17 | 330 | 0.0 | 0.0 | 0.00 | 0.00 | 0.00 | 1012.5 | |
| 20260906013644 | -17 | 330 | 0.0 | 3.2 | 0.00 | 0.00 | 0.00 | 1012.5 | |
| 20260906013139 | -17 | 81 | 0.0 | 3.2 | 0.00 | 0.00 | 0.00 | 1012.5 | |
| 20260906012634 | -17 | 147 | 1.6 | 3.2 | 0.00 | 0.00 | 0.00 | 1012.5 | |
| 20260906012129 | -17 | 209 | 0.0 | 3.2 | 0.00 | 0.00 | 0.00 | 1012.4 | |
| 20260906011624 | -17 | 117 | 0.0 | 1.6 | 0.00 | 0.00 | 0.00 | 1012.2 | |
| 20260906011118 | -17 | 115 | 0.0 | 1.6 | 0.00 | 0.00 | 0.00 | 1012.3 | |
| 20260906010614 | -17 | 35 | 1.6 | 3.2 | 0.00 | 0.00 | 0.00 | 1012.3 | |
| 20260906010110 | -17 | 176 | 0.0 | 3.2 | 0.00 | 0.00 | 0.00 | 1012.2 | |
| 20260906005604 | -17 | 121 | 0.0 | 4.8 | 0.00 | 0.00 | 0.00 | 1012.4 | |
| 20260906005103 | -17 | 149 | 1.6 | 4.8 | 0.00 | 0.00 | 0.00 | 1012.2 | |
| 20260906004602 | -17 | 21 | 3.2 | 3.2 | 0.00 | 0.00 | 0.00 | 1012.2 | |
| 20260906004057 | -17 | 62 | 0.0 | 1.6 | 0.00 | 0.00 | 0.00 | 1012.3 | |
| 20260906003553 | -17 | 3 | 0.0 | 3.2 | 0.00 | 0.00 | 0.00 | 1012.2 | |
| 20260906003048 | -17 | 37 | 0.0 | 1.6 | 0.00 | 0.00 | 0.00 | 1012.0 | |
| 20260906002543 | -17 | 121 | 1.6 | 3.2 | 0.00 | 0.00 | 0.00 | 1012.0 | |
| 20260906002038 | -17 | 247 | 0.0 | 1.6 | 0.00 | 0.00 | 0.00 | 1011.9 | |
| 20260906001533 | -17 | 133 | 0.0 | 3.2 | 0.00 | 0.00 | 0.00 | 1011.9 | |
| 20260906001027 | -17 | 137 | 0.0 | 0.0 | 0.00 | 0.00 | 0.00 | 1012.0 | |
| 20260906000523 | -17 | 33 | 1.6 | 3.2 | 0.00 | 0.00 | 0.00 | 1012.3 | |
| 20260906000018 | -17 | 55 | 0.0 | 1.6 | 0.00 | 0.00 | 0.00 | 1012.2 | |
| 20260905235511 | -17 | 224 | 3.2 | 3.2 | 0.00 | 0.00 | 0.00 | 1012.2 | |
| 20260905235007 | -17 | 226 | 4.8 | 4.8 | 0.00 | 0.00 | 0.00 | 1012.2 | |
| 20260905234502 | -17 | 242 | 0.0 | 1.6 | 0.00 | 0.00 | 0.00 | 1012.4 | |
| 20260905233956 | -17 | 233 | 0.0 | 3.2 | 0.00 | 0.00 | 0.00 | 1012.5 | |
| 20260905233452 | -17 | 111 | 1.6 | 3.2 | 0.00 | 0.00 | 0.00 | 1012.3 | |
| 20260905232950 | -17 | 280 | 0.0 | 0.0 | 0.00 | 0.00 | 0.00 | 1012.2 | |
| 20260905232447 | -17 | 264 | 0.0 | 1.6 | 0.00 | 0.00 | 0.00 | 1012.0 | |
| 20260905231942 | -17 | 257 | 0.0 | 1.6 | 0.00 | 0.00 | 0.00 | 1012.1 | |
| 20260905231437 | -17 | 217 | 0.0 | 1.6 | 0.00 | 0.00 | 0.00 | 1011.8 | |
| 20260905230928 | -17 | 69 | 0.0 | 3.2 | 0.00 | 0.00 | 0.00 | 1012.0 | |
| 20260905230426 | -17 | 229 | 0.0 | 1.6 | 0.00 | 0.00 | 0.00 | 1011.9 | |
| 20260905225919 | -17 | 146 | 3.2 | 4.8 | 0.00 | 0.00 | 0.00 | 1011.7 | |
| 20260905225415 | -17 | 184 | 0.0 | 1.6 | 0.00 | 0.00 | 0.00 | 1011.6 | |
| 20260905224910 | -17 | 121 | 0.0 | 3.2 | 0.00 | 0.00 | 0.00 | 1011.7 | |
| 20260905224406 | -17 | 140 | 0.0 | 1.6 | 0.00 | 0.00 | 0.00 | 1011.6 | |
| 20260905223859 | -17 | 77 | 3.2 | 3.2 | 0.00 | 0.00 | 0.00 | 1012.0 | |
| 20260905223357 | -17 | 115 | 1.6 | 4.8 | 0.00 | 0.00 | 0.00 | 1011.9 | |
| 20260905222852 | -17 | 130 | 1.6 | 4.8 | 0.00 | 0.00 | 0.00 | 1012.0 | |
| 20260905222350 | -17 | 121 | 3.2 | 4.8 | 0.00 | 0.00 | 0.00 | 1012.1 | |
| 20260905221841 | -17 | 150 | 0.0 | 4.8 | 0.00 | 0.00 | 0.00 | 1012.1 | |
| 20260905221337 | -17 | 143 | 0.0 | 3.2 | 0.00 | 0.00 | 0.00 | 1012.3 | |
| 20260905220833 | -17 | 119 | 0.0 | 3.2 | 0.00 | 0.00 | 0.00 | 1012.5 | |
| 20260905220329 | -17 | 8 | 1.6 | 4.8 | 0.00 | 0.00 | 0.00 | 1012.4 | |
| 20260905215828 | -17 | 352 | 4.8 | 6.4 | 0.00 | 0.00 | 0.00 | 1012.4 | |
| 20260905215324 | -17 | 126 | 1.6 | 3.2 | 0.00 | 0.00 | 0.00 | 1012.6 | |
| 20260905214821 | -17 | 147 | 3.2 | 3.2 | 0.00 | 0.00 | 0.00 | 1012.7 | |
| 20260905214315 | -17 | 348 | 3.2 | 4.8 | 0.00 | 0.00 | 0.00 | 1012.5 | |
| 20260905213810 | -17 | 131 | 3.2 | 4.8 | 0.00 | 0.00 | 0.00 | 1012.5 | |
| 20260905213306 | -17 | 131 | 3.2 | 8.0 | 0.00 | 0.00 | 0.00 | 1012.3 | |
| 20260905212801 | -17 | 1 | 8.0 | 9.7 | 0.00 | 0.00 | 0.00 | 1012.7 | |
| 20260905212300 | -17 | 59 | 1.6 | 4.8 | 0.00 | 0.00 | 0.00 | 1012.5 | |
| 20260905211755 | -17 | 121 | 3.2 | 8.0 | 0.00 | 0.00 | 0.00 | 1012.4 | |
| 20260905211250 | -17 | 28 | 3.2 | 4.8 | 0.00 | 0.00 | 0.00 | 1012.5 | |
| 20260905210748 | -17 | 111 | 1.6 | 6.4 | 0.00 | 0.00 | 0.00 | 1012.4 | |
| 20260905210246 | -17 | 98 | 3.2 | 6.4 | 0.00 | 0.00 | 0.00 | 1012.6 | |
| 20260905205745 | -17 | 69 | 1.6 | 6.4 | 0.00 | 0.00 | 0.00 | 1012.4 | |
| 20260905205240 | -17 | 121 | 3.2 | 8.0 | 0.00 | 0.00 | 0.00 | 1012.5 | |
| 20260905204739 | -17 | 142 | 6.4 | 12.9 | 0.00 | 0.00 | 0.00 | 1012.6 | |
| 20260905204235 | -17 | 158 | 1.6 | 4.8 | 0.00 | 0.00 | 0.00 | 1012.7 | |
| 20260905203734 | -17 | 56 | 4.8 | 8.0 | 0.00 | 0.00 | 0.00 | 1012.9 | |
| 20260905203230 | -17 | 42 | 4.8 | 6.4 | 0.00 | 0.00 | 0.00 | 1013.1 | |
| 20260905202725 | -17 | 4 | 1.6 | 8.0 | 0.00 | 0.00 | 0.00 | 1012.8 | |
| 20260905202221 | -17 | 101 | 6.4 | 8.0 | 0.00 | 0.00 | 0.00 | 1012.9 | |
| 20260905201716 | -17 | 114 | 6.4 | 16.1 | 0.00 | 0.00 | 0.00 | 1012.7 | |
| 20260905201217 | -17 | 78 | 4.8 | 16.1 | 0.00 | 0.00 | 0.00 | 1012.3 | |
| 20260905200712 | -17 | 52 | 3.2 | 6.4 | 0.00 | 0.00 | 0.00 | 1012.2 | |
| 20260905200208 | -17 | 274 | 3.2 | 6.4 | 0.00 | 0.00 | 0.00 | 1011.9 | |
| 20260905195706 | -17 | 95 | 4.8 | 11.3 | 0.00 | 0.00 | 0.00 | 1012.1 | |
| 20260905195201 | -17 | 99 | 4.8 | 6.4 | 0.00 | 0.00 | 0.00 | 1012.2 | |
| 20260905194656 | -17 | 97 | 4.8 | 6.4 | 0.00 | 0.00 | 0.00 | 1012.2 | |
| 20260905194155 | -17 | 30 | 0.0 | 8.0 | 0.00 | 0.00 | 0.00 | 1012.3 | |
| 20260905193650 | -17 | 5 | 1.6 | 3.2 | 0.00 | 0.00 | 0.00 | 1012.3 | |
| 20260905193144 | -17 | 139 | 0.0 | 4.8 | 0.00 | 0.00 | 0.00 | 1012.4 | |
| 20260905192635 | -17 | 9 | 0.0 | 8.0 | 0.00 | 0.00 | 0.00 | 1012.2 | |
| 20260905192131 | -17 | 285 | 0.0 | 6.4 | 0.00 | 0.00 | 0.00 | 1012.4 | |
| 20260905191631 | -17 | 286 | 0.0 | 3.2 | 0.00 | 0.00 | 0.00 | 1012.6 | |
| 20260905191128 | -17 | 264 | 0.0 | 0.0 | 0.00 | 0.00 | 0.00 | 1012.7 | |
| 20260905190627 | -17 | 264 | 0.0 | 1.6 | 0.00 | 0.00 | 0.00 | 1012.7 | |
| 20260905190127 | -17 | 346 | 0.0 | 0.0 | 0.00 | 0.00 | 0.00 | 1012.7 | |
| 20260905185626 | -17 | 178 | 0.0 | 1.6 | 0.00 | 0.00 | 0.00 | 1013.0 | |
| 20260905185120 | -17 | 295 | 0.0 | 3.2 | 0.00 | 0.00 | 0.00 | 1012.9 | |
| 20260905184615 | -17 | 129 | 0.0 | 3.2 | 0.00 | 0.00 | 0.00 | 1013.1 | |
| 20260905184114 | -17 | 242 | 0.0 | 4.8 | 0.00 | 0.00 | 0.00 | 1012.8 | |
| 20260905183613 | -17 | 143 | 0.0 | 4.8 | 0.00 | 0.00 | 0.00 | 1012.8 | |
| 20260905183109 | -17 | 237 | 1.6 | 4.8 | 0.00 | 0.00 | 0.00 | 1012.7 | |
| 20260905182608 | -17 | 152 | 3.2 | 6.4 | 0.00 | 0.00 | 0.00 | 1012.8 | |
| 20260905182102 | -17 | 242 | 0.0 | 3.2 | 0.00 | 0.00 | 0.00 | 1012.6 | |
| 20260905181602 | -17 | 90 | 1.6 | 4.8 | 0.00 | 0.00 | 0.00 | 1012.9 | |
| 20260905181101 | -17 | 44 | 8.0 | 8.0 | 0.00 | 0.00 | 0.00 | 1013.1 | |
| 20260905180556 | -17 | 307 | 0.0 | 9.7 | 0.00 | 0.00 | 0.00 | 1013.0 | |
| 20260905180052 | -17 | 195 | 1.6 | 4.8 | 0.00 | 0.00 | 0.00 | 1013.1 | |
| 20260905175551 | -17 | 199 | 4.8 | 9.7 | 0.00 | 0.00 | 0.00 | 1013.2 | |
| 20260905175047 | -17 | 273 | 1.6 | 6.4 | 0.00 | 0.00 | 0.00 | 1013.4 | |
| 20260905174542 | -17 | 161 | 3.2 | 8.0 | 0.00 | 0.00 | 0.00 | 1013.3 | |
| 20260905174037 | -17 | 88 | 3.2 | 6.4 | 0.00 | 0.00 | 0.00 | 1013.4 | |
| 20260905173534 | -17 | 115 | 9.7 | 11.3 | 0.00 | 0.00 | 0.00 | 1013.4 | |
| 20260905173029 | -17 | 85 | 4.8 | 6.4 | 0.00 | 0.00 | 0.00 | 1013.5 | |
| 20260905172527 | -17 | 172 | 3.2 | 8.0 | 0.00 | 0.00 | 0.00 | 1013.7 | |
| 20260905172023 | -17 | 359 | 4.8 | 8.0 | 0.00 | 0.00 | 0.00 | 1013.6 | |
| 20260905171519 | -17 | 105 | 0.0 | 4.8 | 0.00 | 0.00 | 0.00 | 1013.8 | |
| 20260905171015 | -17 | 171 | 0.0 | 4.8 | 0.00 | 0.00 | 0.00 | 1013.5 | |
| 20260905170512 | -17 | 89 | 3.2 | 4.8 | 0.00 | 0.00 | 0.00 | 1013.6 | |
| 20260905170006 | -17 | 118 | 3.2 | 8.0 | 0.00 | 0.00 | 0.00 | 1013.8 | |
| 20260905165500 | -17 | 19 | 4.8 | 4.8 | 0.00 | 0.00 | 0.00 | 1013.7 | |
| 20260905164950 | -17 | 90 | 1.6 | 11.3 | 0.00 | 0.00 | 0.00 | 1014.0 | |
| 20260905164450 | -17 | 41 | 4.8 | 8.0 | 0.00 | 0.00 | 0.00 | 1013.9 | |
| 20260905163944 | -17 | 50 | 0.0 | 4.8 | 0.00 | 0.00 | 0.00 | 1014.1 | |
| 20260905163441 | -17 | 65 | 3.2 | 6.4 | 0.00 | 0.00 | 0.00 | 1014.1 | |
| 20260905162937 | -17 | 350 | 1.6 | 4.8 | 0.00 | 0.00 | 0.00 | 1014.2 | |
| 20260905162432 | -17 | 357 | 3.2 | 4.8 | 0.00 | 0.00 | 0.00 | 1014.2 | |
| 20260905161927 | -17 | 158 | 0.0 | 4.8 | 0.00 | 0.00 | 0.00 | 1014.2 | |
| 20260905161426 | -17 | 13 | 4.8 | 8.0 | 0.00 | 0.00 | 0.00 | 1014.3 | |
| 20260905160924 | -17 | 19 | 6.4 | 8.0 | 0.00 | 0.00 | 0.00 | 1014.3 | |
| 20260905160418 | -17 | 74 | 1.6 | 6.4 | 0.00 | 0.00 | 0.00 | 1014.4 | |
| 20260905155913 | -17 | 56 | 0.0 | 4.8 | 0.00 | 0.00 | 0.00 | 1014.4 | |
| 20260905155413 | -17 | 179 | 0.0 | 8.0 | 0.00 | 0.00 | 0.00 | 1014.5 | |
| 20260905154911 | -17 | 93 | 0.0 | 6.4 | 0.00 | 0.00 | 0.00 | 1014.6 | |
| 20260905154407 | -17 | 54 | 0.0 | 3.2 | 0.00 | 0.00 | 0.00 | 1014.6 | |
| 20260905153902 | -17 | 68 | 1.6 | 3.2 | 0.00 | 0.00 | 0.00 | 1014.6 | |
| 20260905153359 | -17 | 131 | 1.6 | 3.2 | 0.00 | 0.00 | 0.00 | 1014.6 | |
| 20260905152858 | -17 | 246 | 0.0 | 4.8 | 0.00 | 0.00 | 0.00 | 1014.6 | |
| 20260905152357 | -17 | 350 | 3.2 | 6.4 | 0.00 | 0.00 | 0.00 | 1014.9 | |
| 20260905151853 | -17 | 73 | 0.0 | 4.8 | 0.00 | 0.00 | 0.00 | 1014.5 | |
| 20260905151348 | -17 | 62 | 0.0 | 4.8 | 0.00 | 0.00 | 0.00 | 1014.5 | |
| 20260905150843 | -17 | 162 | 0.0 | 3.2 | 0.00 | 0.00 | 0.00 | 1014.9 | |
| 20260905150337 | -17 | 162 | 0.0 | 3.2 | 0.00 | 0.00 | 0.00 | 1014.5 | |
| 20260905145834 | -17 | 132 | 0.0 | 3.2 | 0.00 | 0.00 | 0.00 | 1014.5 | |
| 20260905145329 | -17 | 166 | 1.6 | 3.2 | 0.00 | 0.00 | 0.00 | 1015.0 | |
| 20260905144828 | -17 | 144 | 0.0 | 3.2 | 0.00 | 0.00 | 0.00 | 1015.1 | |
| 20260905144323 | -17 | 113 | 0.0 | 4.8 | 0.00 | 0.00 | 0.00 | 1015.0 | |
| 20260905143821 | -17 | 155 | 0.0 | 3.2 | 0.00 | 0.00 | 0.00 | 1015.0 | |
| 20260905143316 | -17 | 248 | 3.2 | 4.8 | 0.00 | 0.00 | 0.00 | 1015.0 | |
| 20260905142816 | -17 | 44 | 0.0 | 3.2 | 0.00 | 0.00 | 0.00 | 1015.0 | |
| 20260905142310 | -17 | 229 | 0.0 | 1.6 | 0.00 | 0.00 | 0.00 | 1014.9 | |
| 20260905141806 | -17 | 23 | 0.0 | 3.2 | 0.00 | 0.00 | 0.00 | 1015.1 | |
| 20260905141301 | -17 | 271 | 3.2 | 4.8 | 0.00 | 0.00 | 0.00 | 1014.9 | |
| 20260905140756 | -17 | 328 | 0.0 | 4.8 | 0.00 | 0.00 | 0.00 | 1015.1 | |
| 20260905140250 | -17 | 249 | 0.0 | 3.2 | 0.00 | 0.00 | 0.00 | 1015.1 | |
| 20260905135749 | -17 | 251 | 3.2 | 4.8 | 0.00 | 0.00 | 0.00 | 1015.2 | |
| 20260905135246 | -17 | 207 | 3.2 | 4.8 | 0.00 | 0.00 | 0.00 | 1015.0 | |
| 20260905134745 | -17 | 113 | 0.0 | 1.6 | 0.00 | 0.00 | 0.00 | 1015.1 | |
| 20260905134245 | -17 | 238 | 3.2 | 3.2 | 0.00 | 0.00 | 0.00 | 1015.0 | |
| 20260905133739 | -17 | 163 | 0.0 | 3.2 | 0.00 | 0.00 | 0.00 | 1015.2 | |
| 20260905133235 | -17 | 144 | 0.0 | 1.6 | 0.00 | 0.00 | 0.00 | 1015.2 | |
| 20260905132734 | -17 | 125 | 0.0 | 1.6 | 0.00 | 0.00 | 0.00 | 1015.6 | |
| 20260905132230 | -17 | 137 | 0.0 | 3.2 | 0.00 | 0.00 | 0.00 | 1015.3 | |
| 20260905131724 | -17 | 189 | 0.0 | 1.6 | 0.00 | 0.00 | 0.00 | 1015.4 | |
| 20260905131220 | -17 | 195 | 0.0 | 1.6 | 0.00 | 0.00 | 0.00 | 1015.4 | |
| 20260905130714 | -17 | 137 | 0.0 | 3.2 | 0.00 | 0.00 | 0.00 | 1015.2 | |
| 20260905130214 | -17 | 189 | 0.0 | 3.2 | 0.00 | 0.00 | 0.00 | 1015.2 | |
| 20260905125709 | -17 | 221 | 0.0 | 3.2 | 0.00 | 0.00 | 0.00 | 1015.4 | |
| 20260905125204 | -17 | 211 | 0.0 | 3.2 | 0.00 | 0.00 | 0.00 | 1015.2 | |
| 20260905124700 | -17 | 241 | 1.6 | 3.2 | 0.00 | 0.00 | 0.00 |